Terug naar catalogus

STARLINK-35746

ActiefCommunicatieVLEO
NORAD 66582·PAYLOAD·🇺🇸 United States

Gelanceerd Nov 21, 2025 vanaf Cape Canaveral Space Force Station

Loading…

Volgende Passages (komende 24 uur)

TLE

VersSource: CelesTrak SupGP

Epoch: Sep 14, 2026, 22:54 UTC

1 66582C 25268AB  26257.95465278 -.00019598  00000+0 -70975-3 0  2579
2 66582  43.0034 357.9198 0001625 272.0180 263.1512 15.27591624    12

Volg STARLINK-35746 in realtime met AllMySat

Download on the App Store